KE7YUP Weather Reports


Display with metric or nautical units.
time (UTC)temp
F
wind
direction
speed
MPH
gust
MPH
rain 1hr
in
rain 24hr
in
rain mn
in
humidity
%
barometer
mb
20260509012415 74 334 7.0 10.0 0.00 0.00 0.00 20 1015.8
20260509011415 74 3 6.0 11.0 0.00 0.00 0.00 22 1016.2
20260509010435 75 326 7.0 12.0 0.00 0.00 0.00 22 1016.3
20260509005417 75 354 3.0 11.0 0.00 0.00 0.00 21 1016.3
20260509004417 74 28 12.0 15.0 0.00 0.00 0.00 22 1015.9
20260509003417 74 39 12.0 15.0 0.00 0.00 0.00 22 1016.3
20260509002417 74 359 8.0 11.0 0.00 0.00 0.00 22 1016.4
20260509001417 74 38 7.0 12.0 0.00 0.00 0.00 22 1016.0
20260509000418 74 6 7.0 13.0 0.00 0.00 0.00 22 1016.1
20260508235417 74 38 13.0 18.0 0.00 0.00 0.00 22 1016.2
20260508234417 74 36 12.0 18.0 0.00 0.00 0.00 22 1016.8
20260508233417 74 15 11.0 17.0 0.00 0.00 0.00 22 1016.8
20260508232417 74 42 11.0 16.0 0.00 0.00 0.00 23 1017.0
20260508231437 74 38 13.0 18.0 0.00 0.00 0.00 22 1016.7
20260508230417 73 45 11.0 15.0 0.00 0.00 0.00 23 1016.7
20260508225418 73 31 8.0 17.0 0.00 0.00 0.00 23 1016.9
20260508224417 73 12 9.0 20.0 0.00 0.00 0.00 24 1017.9
20260508223417 73 44 15.0 21.0 0.00 0.00 0.00 24 1018.1
20260508222417 73 35 9.0 19.0 0.00 0.00 0.00 24 1018.1
20260508221417 73 36 16.0 25.0 0.00 0.00 0.00 24 1018.4
20260508220417 72 10 6.0 16.0 0.00 0.00 0.00 25 1018.7
20260508215417 72 43 13.0 20.0 0.00 0.00 0.00 24 1018.7
20260508214417 73 36 13.0 19.0 0.00 0.00 0.00 24 1018.8
20260508213416 73 43 14.0 20.0 0.00 0.00 0.00 24 1018.9
20260508212416 73 7 10.0 22.0 0.00 0.00 0.00 24 1019.1
20260508211416 72 47 16.0 24.0 0.00 0.00 0.00 24 1018.6
20260508210417 72 39 13.0 19.0 0.00 0.00 0.00 25 1018.7
20260508205436 72 42 12.0 20.0 0.00 0.00 0.00 24 1018.9
20260508204416 72 38 11.0 17.0 0.00 0.00 0.00 25 1018.6
20260508203416 72 360 11.0 23.0 0.00 0.00 0.00 24 1018.6
20260508202417 72 11 11.0 19.0 0.00 0.00 0.00 25 1018.8
20260508201416 72 359 13.0 19.0 0.00 0.00 0.00 25 1019.0
20260508200416 73 31 15.0 20.0 0.00 0.00 0.00 23 1019.2
20260508195416 72 350 10.0 19.0 0.00 0.00 0.00 21 1018.9
20260508194416 72 308 8.0 15.0 0.00 0.00 0.00 22 1019.4
20260508193416 72 324 12.0 21.0 0.00 0.00 0.00 23 1019.6
20260508192416 71 336 11.0 16.0 0.00 0.00 0.00 22 1019.7
20260508191416 71 311 12.0 20.0 0.00 0.00 0.00 24 1019.7
20260508190416 71 356 13.0 15.0 0.00 0.00 0.00 23 1019.9
20260508185416 71 305 10.0 21.0 0.00 0.00 0.00 23 1020.2
20260508184457 70 308 15.0 21.0 0.00 0.00 0.00 25 1020.7
20260508183416 70 355 11.0 15.0 0.00 0.00 0.00 31 1020.7
20260508182456 69 352 7.0 12.0 0.00 0.00 0.00 32 1020.5
20260508181436 70 355 9.0 14.0 0.00 0.00 0.00 30 1020.9
20260508180416 70 41 13.0 15.0 0.00 0.00 0.00 32 1020.9
20260508175416 70 354 5.0 10.0 0.00 0.00 0.00 30 1020.8
20260508174416 69 204 5.0 9.0 0.00 0.00 0.00 35 1020.7
20260508173416 69 164 2.0 8.0 0.00 0.00 0.00 35 1020.8
20260508172416 70 134 5.0 9.0 0.00 0.00 0.00 35 1020.7
20260508171436 69 95 3.0 10.0 0.00 0.00 0.00 35 1020.5
20260508170416 68 108 3.0 6.0 0.00 0.00 0.00 36 1020.4
20260508165416 67 105 6.0 10.0 0.00 0.00 0.00 38 1020.1
20260508164416 67 106 3.0 5.0 0.00 0.00 0.00 39 1020.8
20260508163416 67 103 1.0 6.0 0.00 0.00 0.00 38 1020.8
20260508162416 66 137 4.0 7.0 0.00 0.00 0.00 41 1020.4
20260508161416 66 139 2.0 3.0 0.00 0.00 0.00 40 1020.5
20260508160416 65 149 3.0 7.0 0.00 0.00 0.00 41 1020.2
20260508155416 65 102 3.0 6.0 0.00 0.00 0.00 41 1020.2
20260508154436 64 88 1.0 4.0 0.00 0.00 0.00 43 1020.3
20260508153416 63 159 0.0 1.0 0.00 0.00 0.00 44 1019.9
20260508152416 62 84 2.0 4.0 0.00 0.00 0.00 47 1019.9
20260508151416 62 149 1.0 3.0 0.00 0.00 0.00 48 1020.3
20260508150436 62 117 3.0 5.0 0.00 0.00 0.00 48 1020.2
20260508145416 62 116 3.0 4.0 0.00 0.00 0.00 49 1020.2
20260508144415 61 111 4.0 6.0 0.00 0.00 0.00 48 1020.1
20260508143416 62 150 3.0 5.0 0.00 0.00 0.00 48 1020.2
20260508142415 61 142 1.0 1.0 0.00 0.00 0.00 45 1020.2
20260508141416 60 151 1.0 2.0 0.00 0.00 0.00 49 1020.4
20260508140415 59 308 0.0 1.0 0.00 0.00 0.00 50 1020.2
20260508135415 59 0.0 0.0 0.00 0.00 0.00 45 1020.1
20260508134416 57 309 1.0 2.0 0.00 0.00 0.00 45 1020.0
20260508133436 55 309 0.0 2.0 0.00 0.00 0.00 53 1019.6
20260508132415 54 309 0.0 1.0 0.00 0.00 0.00 50 1019.3
20260508131416 52 0.0 0.0 0.00 0.00 0.00 51 1018.7
20260508130415 53 309 1.0 2.0 0.00 0.00 0.00 49 1018.9
20260508125415 53 309 0.0 2.0 0.00 0.00 0.00 48 1018.9
20260508124416 54 309 2.0 4.0 0.00 0.00 0.00 46 1018.6
20260508123415 54 355 2.0 3.0 0.00 0.00 0.00 45 1018.6
20260508122415 54 335 4.0 5.0 0.00 0.00 0.00 45 1018.4
20260508121415 54 275 3.0 4.0 0.00 0.00 0.00 45 1018.6
20260508120415 54 296 1.0 3.0 0.00 0.00 0.00 46 1018.7
20260508115416 53 296 1.0 4.0 0.00 0.00 0.00 47 1018.3
20260508114415 53 279 2.0 2.0 0.00 0.00 0.00 46 1018.2
20260508113415 54 279 1.0 3.0 0.00 0.00 0.00 47 1018.5
20260508112435 56 325 1.0 3.0 0.00 0.00 0.00 46 1018.6
20260508111435 56 349 3.0 4.0 0.00 0.00 0.00 46 1018.7
20260508110415 55 114 1.0 2.0 0.00 0.00 0.00 46 1018.7
20260508105415 55 297 0.0 1.0 0.00 0.00 0.00 46 1018.7
20260508104415 55 331 3.0 5.0 0.00 0.00 0.00 46 1018.3
20260508103415 57 0.0 0.0 0.00 0.00 0.00 43 1018.6
20260508102415 61 149 2.0 3.0 0.00 0.00 0.00 37 1019.3
20260508101435 61 14 3.0 5.0 0.00 0.00 0.00 38 1019.2
20260508100416 62 263 1.0 3.0 0.00 0.00 0.00 36 1019.2
20260508095435 64 162 2.0 3.0 0.00 0.00 0.00 35 1019.5
20260508094441 64 338 5.0 6.0 0.00 0.00 0.00 33 1019.5
20260508093816 64 355 8.0 13.0 0.00 0.00 0.00 32 1019.4
20260508092816 64 359 9.0 14.0 0.00 0.00 0.00 32 1019.0
20260508091816 65 344 7.0 9.0 0.00 0.00 0.00 31 1019.1
20260508090816 63 3 8.0 11.0 0.00 0.00 0.00 33 1019.1
20260508085816 60 330 6.0 9.0 0.00 0.00 0.00 37 1018.6
20260508084816 60 305 5.0 8.0 0.00 0.00 0.00 38 1018.7
20260508083816 60 310 8.0 10.0 0.00 0.00 0.00 38 1018.7
20260508082816 61 301 5.0 8.0 0.00 0.00 0.00 37 1018.8
20260508081816 59 322 2.0 4.0 0.00 0.00 0.00 39 1018.5
20260508080816 58 322 2.0 3.0 0.00 0.00 0.00 40 1018.2
20260508075816 58 322 1.0 1.0 0.00 0.00 0.00 40 1018.2
20260508074816 59 322 3.0 4.0 0.00 0.00 0.00 40 1018.6
20260508073816 60 298 2.0 3.0 0.00 0.00 0.00 39 1018.6
20260508072836 60 241 4.0 5.0 0.00 0.00 0.00 39 1018.6
20260508071815 60 301 1.0 3.0 0.00 0.00 0.00 38 1018.6
20260508070836 61 301 2.0 5.0 0.00 0.00 0.00 37 1018.7
20260508065816 62 319 6.0 9.0 0.00 0.00 0.00 37 1018.6
20260508064815 62 328 6.0 9.0 0.00 0.00 0.00 36 1018.6
20260508063815 61 317 9.0 10.0 0.00 0.00 0.00 37 1018.6
20260508062816 62 320 7.0 9.0 0.00 0.00 0.00 35 1018.2
20260508061815 64 320 10.0 11.0 0.00 0.00 0.00 34 1018.5
20260508060815 63 319 5.0 7.0 0.00 0.00 0.00 34 1018.4
20260508055816 63 321 4.0 5.0 0.00 0.00 0.00 34 1018.0
20260508054817 64 321 2.0 3.0 0.00 0.00 0.00 34 1018.1
20260508053817 64 327 6.0 8.0 0.00 0.00 0.00 33 1018.1
20260508052816 64 319 8.0 9.0 0.00 0.00 0.00 33 1017.7
20260508051817 64 309 7.0 9.0 0.00 0.00 0.00 34 1017.8
20260508050816 64 313 1.0 3.0 0.00 0.00 0.00 34 1017.9
20260508045837 62 355 4.0 5.0 0.00 0.00 0.00 36 1017.1
20260508044817 63 327 2.0 3.0 0.00 0.00 0.00 34 1017.4
20260508043816 61 339 4.0 5.0 0.00 0.00 0.00 37 1017.1
20260508042816 63 344 4.0 5.0 0.00 0.00 0.00 35 1016.9
20260508041816 65 333 1.0 3.0 0.00 0.00 0.00 33 1017.3
20260508040816 64 322 5.0 9.0 0.00 0.00 0.00 33 1017.4
20260508035817 64 328 4.0 8.0 0.00 0.00 0.00 33 1017.0
20260508034837 64 310 6.0 9.0 0.00 0.00 0.00 33 1016.9
20260508033817 64 317 4.0 6.0 0.00 0.00 0.00 34 1016.9
20260508032816 63 320 6.0 9.0 0.00 0.00 0.00 35 1016.8
20260508031837 64 337 4.0 5.0 0.00 0.00 0.00 34 1016.8
20260508030817 66 343 6.0 9.0 0.00 0.00 0.00 32 1017.1
20260508025816 66 355 5.0 6.0 0.00 0.00 0.00 31 1016.7
20260508024816 66 358 5.0 5.0 0.00 0.00 0.00 31 1016.5
20260508023817 67 10 4.0 6.0 0.00 0.00 0.00 30 1016.5
20260508022837 67 37 2.0 5.0 0.00 0.00 0.00 31 1016.5
20260508021816 67 35 4.0 8.0 0.00 0.00 0.00 30 1016.4
20260508020837 68 67 2.0 4.0 0.00 0.00 0.00 30 1016.4
20260508015816 69 40 5.0 5.0 0.00 0.00 0.00 29 1016.4
20260508014816 69 66 3.0 5.0 0.00 0.00 0.00 29 1016.4
20260508013816 70 69 2.0 4.0 0.00 0.00 0.00 28 1016.8